Regional Weather Roundup
Issued by NWS Cleveland, OH

Home | Current Version | Previous Version | Graphics & Text | Print | Product List | Glossary On
Versions: 1 2 3 4 5 6 7 8 9 10 11 12 13 14 15 16 17 18 19 20 21 22 23 24 25 26 27 28 29 30 31 32 33 34 35 36 37 38 39 40 41 42 43 44 45 46 47 48 49 50
000
ASUS41 KCLE 252012
RWRCLE
OHIO REGIONAL WEATHER ROUNDUP
NATIONAL WEATHER SERVICE WILMINGTON, OH
400 PM EDT WED MAY 25 2016

NOTE: "FAIR" INDICATES FEW OR NO CLOUDS BELOW 12,000 FEET WITH NO
SIGNIFICANT WEATHER AND/OR OBSTRUCTIONS TO VISIBILITY.

OHZ001>008-015>018-024>027-034-035-043-044-252100-
   NORTHWEST OHIO

CITY           SKY/WX    TMP DP  RH WIND       PRES   REMARKS
DEFIANCE       FAIR      83  58  42 S10       30.04F
FINDLAY        FAIR      80  55  42 S16       30.06F
TOLEDO EXPRESS PTSUNNY   82  57  42 S12G22    30.05F
TOLEDO EXEC    FAIR      82  57  42 S20G25    30.06F
LIMA           PTSUNNY   82  59  45 S17G25    30.05F
$$

OHZ009>014-019>023-028>033-038-089-252100-
   NORTHEAST OHIO

CITY           SKY/WX    TMP DP  RH WIND       PRES   REMARKS
CLE-HOPKINS    PTSUNNY   86  57  37 SW12      30.10F
CLE-LAKEFRONT  FAIR      79  59  50 NE7       30.06F
CUY CO. ARPT   PTSUNNY   86  55  35 W8        30.09F
LORAIN-ELYRIA  CLOUDY    81  55  40 SW14      30.08F
ASHTABULA      FAIR      83  52  34 N9        30.09F
AKRON-CANTON   FAIR      82  55  39 SW12      30.12F
WOOSTER        FAIR      82  55  39 S12G22    30.11F
MANSFIELD      FAIR      82  57  42 S14G24    30.12F
YOUNGSTOWN     FAIR      82  47  29 S8        30.12F
$$

OHZ042-051>053-060>062-070>072-077>081-252100-
  SOUTHWEST OHIO

CITY           SKY/WX    TMP DP  RH WIND       PRES   REMARKS
CINC-COVINGTON PTSUNNY   80  63  55 S9        30.09F
CINC-LUNKEN    FAIR      78  65  63 S8        30.09F
HAMILTON       FAIR      83  60  45 VRB5G20   30.08F
DAYTON         PTSUNNY   81  60  48 S14G25    30.08F
WRIGHT-PAT AFB MOSUNNY   82  62  49 S12       30.07F
DAYTON GENERAL FAIR      81  60  48 S13       30.08F
WILMINGTON     FAIR      78  61  55 S13       30.11F
$$

OHZ036-037-039>041-045>050-054>059-063>069-073>076-082>088-252100-
  CENTRAL AND SOUTHEAST OHIO

CITY           SKY/WX    TMP DP  RH WIND       PRES   REMARKS
COLUMBUS       CLOUDY    78  57  48 S8        30.11F
OSU AIRPORT    FAIR      80  58  46 S13       30.11F
BOLTON FIELD   CLOUDY    79  61  53 S13G20    30.12F
RICKENBACK AFB CLOUDY    77  58  51 S13       30.11F
NEWARK         CLOUDY    78  57  48 S6        30.12F
MARION         CLOUDY    80  57  45 S13       30.10F
LANCASTER      CLOUDY    78  59  51 S8        30.13F
ZANESVILLE     CLOUDY    80  56  43 S7        30.14F
NEW PHILLY     FAIR      85  50  29 SW9G18    30.13F
$$




USA.gov is the U.S. government's official web portal to all federal, state and local government web resources and services.